Edwards AFB North Base, CA

2:06 PM PST on November 11, 2019 (GMT -0800)
Edwards AFB North Base

Weather History for K9L2 - September, 2019

Change the Weather History Date:

Saturday, September 28, 2019

  Actual Average (KEDW) Record (KEDW)
Temperature  
Mean Temperature 65 °F -  
Max Temperature 72 °F 85 °F 102 °F (2010)
Min Temperature 57 °F 52 °F 40 °F (2013)
Growing Degree Days 15 (Base 50)    
Moisture  
Dew Point 52 °F    
Average Humidity 67    
Maximum Humidity 81    
Minimum Humidity 47    
Precipitation  
Precipitation 0.00 in - - ()
Sea Level Pressure  
Sea Level Pressure 29.67 in    
Wind  
Wind Speed 18 mph ()    
Max Wind Speed 28 mph    
Max Gust Speed 36 mph    
Visibility 10.0 miles    
Events      
Averages and records for this station are not official NWS values.
T = Trace of Precipitation, MM = Missing Value Source: Averaged Metar Reports

Daily Weather History Graph

Daily Weather History Graph

Search for Another Location

Airport or City:

Astronomy

Sep. 28, 2019 Rise Set
Actual Time 6:43 AM PDT 6:39 PM PDT
Civil Twilight 6:18 AM PDT 7:05 PM PDT
Nautical Twilight 5:49 AM PDT 7:34 PM PDT
Astronomical Twilight 5:19 AM PDT 8:03 PM PDT
Moon 6:28 AM PDT (9/28) 7:07 PM PDT (9/28)
Length of Visible Light 12h 46m
Length of Day
11h 55m
New Moon, 0% of the Moon is Illuminated
Sep 28
New Moon
Oct 5
First Quarter
Oct 13
Full
Oct 21
Last Quarter
Oct 27
New

Hourly Weather History & Observations

Time (PDT) Temp. Dew Point Humidity Pressure Visibility Wind Dir Wind Speed Gust Speed Precip Events Conditions
12:58 AM 62.4 °F 54.3 °F 75% 29.67 in 10.0 mi SSW 16.1 mph 25.3 mph N/A   Clear
1:58 AM 61.3 °F 54.5 °F 78% 29.66 in 10.0 mi SSW 21.9 mph 29.9 mph N/A   Clear
2:58 AM 61.0 °F 54.0 °F 78% 29.66 in 10.0 mi SSW 20.7 mph 28.8 mph N/A   Clear
3:58 AM 60.4 °F 54.0 °F 79% 29.67 in 10.0 mi SSW 18.4 mph 27.6 mph N/A   Clear
4:58 AM 60.1 °F 54.1 °F 81% 29.73 in 10.0 mi SSW 19.6 mph - N/A   Clear
5:58 AM 59.7 °F 54.0 °F 81% 29.68 in 10.0 mi SSW 16.1 mph - N/A   Clear
6:58 AM 59.2 °F 53.4 °F 81% 29.70 in 10.0 mi SSW 12.7 mph - N/A   Clear
7:58 AM 61.9 °F 53.6 °F 74% 29.70 in 10.0 mi SSW 19.6 mph 26.5 mph N/A   Clear
8:58 AM 64.9 °F 53.2 °F 66% 29.70 in 10.0 mi SSW 20.7 mph 26.5 mph N/A   Clear
9:58 AM 67.8 °F 52.9 °F 59% 29.70 in 10.0 mi SSW 21.9 mph 27.6 mph N/A   Clear
10:58 AM 70.0 °F 53.1 °F 55% 29.69 in 10.0 mi SW 21.9 mph 29.9 mph N/A   Clear
11:58 AM 72.1 °F 51.3 °F 48% 29.67 in 10.0 mi SSW 26.5 mph 33.4 mph N/A   Clear
12:58 PM 72.5 °F 51.1 °F 47% 29.66 in 10.0 mi SSW 24.2 mph 32.2 mph N/A   Clear
1:58 PM 71.6 °F 51.6 °F 49% 29.65 in 9.0 mi SSW 26.5 mph 35.7 mph N/A   Clear
2:58 PM 71.2 °F 50.4 °F 48% 29.64 in 10.0 mi SSW 27.6 mph 35.7 mph N/A   Clear
3:58 PM 69.6 °F 51.3 °F 52% 29.64 in 10.0 mi SW 26.5 mph 35.7 mph N/A   Clear
4:58 PM 68.0 °F 51.4 °F 55% 29.65 in 10.0 mi SSW 20.7 mph 33.4 mph N/A   Clear
6:58 PM 62.6 °F 51.6 °F 67% 29.65 in 10.0 mi SSW 19.6 mph 28.8 mph N/A   Clear
7:58 PM 60.4 °F 51.1 °F 71% 29.66 in 10.0 mi SSW 18.4 mph - N/A   Clear
8:58 PM 59.5 °F 50.9 °F 73% 29.66 in 10.0 mi SSW 21.9 mph 27.6 mph N/A   Clear
9:58 PM 58.8 °F 50.2 °F 73% 29.69 in 10.0 mi SSW 18.4 mph 27.6 mph N/A   Clear
10:58 PM 57.0 °F 48.4 °F 73% 29.70 in 10.0 mi SW 10.4 mph - N/A   Clear